TimeEST,TemperatureF,Dew PointF,Humidity,Sea Level PressureIn,VisibilityMPH,Wind Direction,Wind SpeedMPH,Gust SpeedMPH,PrecipitationIn,Events,Conditions,WindDirDegrees,DateUTC
12:00 AM,28.4,12.2,51,29.95,10.0,NW,17.3,29.9,N/A,,Clear,310,2013-01-22 05:00:00
12:21 AM,28.4,12.2,51,29.95,10.0,NW,18.4,26.5,N/A,,Clear,310,2013-01-22 05:21:00
12:42 AM,28.4,12.2,51,29.96,10.0,NW,13.8,25.3,N/A,,Clear,310,2013-01-22 05:42:00
1:06 AM,28.4,10.4,47,29.96,10.0,NW,13.8,27.6,N/A,,Clear,320,2013-01-22 06:06:00
1:27 AM,26.6,10.4,51,29.99,10.0,NW,15.0,28.8,N/A,,Clear,310,2013-01-22 06:27:00
1:48 AM,26.6,8.6,47,30.00,10.0,NW,11.5,24.2,N/A,,Clear,310,2013-01-22 06:48:00
2:09 AM,26.6,5.0,40,30.02,10.0,WNW,12.7,24.2,N/A,,Clear,300,2013-01-22 07:09:00
2:51 AM,23.0,5.0,46,30.05,10.0,NW,10.4,19.6,N/A,,Clear,310,2013-01-22 07:51:00
3:12 AM,23.0,5.0,46,30.06,10.0,WNW,11.5,17.3,N/A,,Clear,300,2013-01-22 08:12:00
3:33 AM,21.2,3.2,46,30.06,10.0,NW,15.0,21.9,N/A,,Clear,310,2013-01-22 08:33:00
3:54 AM,21.2,3.2,46,30.07,10.0,WNW,9.2,17.3,N/A,,Clear,300,2013-01-22 08:54:00
4:18 AM,21.2,-0.4,39,30.08,10.0,WNW,8.1,20.7,N/A,,Clear,290,2013-01-22 09:18:00
4:39 AM,21.2,-0.4,39,30.08,10.0,WNW,13.8,24.2,N/A,,Clear,290,2013-01-22 09:39:00
5:00 AM,21.2,1.4,42,30.10,10.0,WNW,9.2,-,N/A,,Clear,300,2013-01-22 10:00:00
5:21 AM,19.4,3.2,49,30.11,10.0,NW,6.9,-,N/A,,Clear,310,2013-01-22 10:21:00
5:42 AM,19.4,3.2,49,30.12,10.0,WNW,5.8,-,N/A,,Clear,290,2013-01-22 10:42:00
6:03 AM,19.4,1.4,46,30.13,10.0,WNW,10.4,-,N/A,,Clear,290,2013-01-22 11:03:00
6:24 AM,19.4,-0.4,42,30.14,10.0,WNW,11.5,17.3,N/A,,Clear,290,2013-01-22 11:24:00
7:51 AM,17.6,-0.4,45,30.18,10.0,NW,11.5,17.3,N/A,,Clear,320,2013-01-22 12:51:00
8:12 AM,17.6,-2.2,42,30.20,10.0,WNW,13.8,21.9,N/A,,Clear,300,2013-01-22 13:12:00
8:33 AM,17.6,-4.0,38,30.21,10.0,WNW,18.4,23.0,N/A,,Clear,290,2013-01-22 13:33:00
8:54 AM,19.4,-5.8,33,30.22,10.0,West,20.7,26.5,N/A,,Clear,280,2013-01-22 13:54:00
9:15 AM,19.4,-5.8,33,30.22,10.0,West,13.8,24.2,N/A,,Clear,280,2013-01-22 14:15:00
9:36 AM,19.4,-5.8,33,30.24,10.0,West,18.4,29.9,N/A,,Clear,270,2013-01-22 14:36:00
9:57 AM,21.2,-5.8,30,30.24,10.0,WNW,17.3,26.5,N/A,,Clear,300,2013-01-22 14:57:00
10:18 AM,21.2,-5.8,30,30.24,10.0,NW,16.1,21.9,N/A,,Clear,310,2013-01-22 15:18:00
10:39 AM,23.0,-4.0,31,30.25,10.0,NW,16.1,23.0,N/A,,Clear,310,2013-01-22 15:39:00
11:00 AM,23.0,-5.8,28,30.24,10.0,West,20.7,27.6,N/A,,Clear,270,2013-01-22 16:00:00
11:24 AM,23.0,-5.8,28,30.23,10.0,WNW,12.7,21.9,N/A,,Clear,290,2013-01-22 16:24:00
11:45 AM,23.0,-5.8,28,30.23,10.0,NW,10.4,24.2,N/A,,Clear,310,2013-01-22 16:45:00
12:06 PM,23.0,-5.8,28,30.22,10.0,West,15.0,26.5,N/A,,Scattered Clouds,280,2013-01-22 17:06:00
12:27 PM,23.0,-5.8,28,30.21,10.0,WNW,9.2,23.0,N/A,,Scattered Clouds,300,2013-01-22 17:27:00
12:48 PM,23.0,-5.8,28,30.20,10.0,West,10.4,21.9,N/A,,Scattered Clouds,280,2013-01-22 17:48:00
1:09 PM,24.8,-5.8,26,30.19,10.0,West,16.1,21.9,N/A,,Scattered Clouds,280,2013-01-22 18:09:00
1:30 PM,23.0,-5.8,28,30.19,10.0,NW,9.2,18.4,N/A,,Scattered Clouds,320,2013-01-22 18:30:00
1:51 PM,23.0,-5.8,28,30.19,10.0,NW,10.4,18.4,N/A,,Scattered Clouds,320,2013-01-22 18:51:00
2:12 PM,26.6,-5.8,24,30.19,10.0,West,13.8,24.2,N/A,,Scattered Clouds,270,2013-01-22 19:12:00
2:33 PM,24.8,-5.8,26,30.19,10.0,WNW,15.0,27.6,N/A,,Clear,290,2013-01-22 19:33:00
2:54 PM,24.8,-5.8,26,30.19,10.0,WNW,15.0,26.5,N/A,,Clear,290,2013-01-22 19:54:00
3:18 PM,24.8,-5.8,26,30.20,10.0,West,17.3,26.5,N/A,,Clear,280,2013-01-22 20:18:00
3:39 PM,23.0,-5.8,28,30.20,10.0,West,18.4,26.5,N/A,,Clear,280,2013-01-22 20:39:00
4:00 PM,23.0,-5.8,28,30.20,10.0,WNW,15.0,25.3,N/A,,Clear,290,2013-01-22 21:00:00
4:21 PM,23.0,-5.8,28,30.21,10.0,West,15.0,21.9,N/A,,Clear,280,2013-01-22 21:21:00
4:42 PM,23.0,-5.8,28,30.21,10.0,WNW,12.7,19.6,N/A,,Clear,290,2013-01-22 21:42:00
5:03 PM,21.2,-4.0,33,30.22,10.0,WNW,12.7,19.6,N/A,,Clear,290,2013-01-22 22:03:00
5:24 PM,21.2,-4.0,33,30.24,10.0,WNW,8.1,-,N/A,,Clear,290,2013-01-22 22:24:00
5:45 PM,21.2,-5.8,30,30.25,10.0,WNW,8.1,19.6,N/A,,Clear,300,2013-01-22 22:45:00
6:06 PM,19.4,-4.0,36,30.26,10.0,West,8.1,-,N/A,,Clear,280,2013-01-22 23:06:00
6:27 PM,19.4,-4.0,36,30.27,10.0,NW,8.1,-,N/A,,Clear,310,2013-01-22 23:27:00
6:51 PM,19.4,-4.0,36,30.28,10.0,WNW,9.2,-,N/A,,Clear,300,2013-01-22 23:51:00
7:12 PM,19.4,-4.0,36,30.29,10.0,WNW,9.2,16.1,N/A,,Clear,300,2013-01-23 00:12:00
7:33 PM,19.4,-2.2,39,30.29,10.0,WNW,9.2,-,N/A,,Clear,300,2013-01-23 00:33:00
7:54 PM,19.4,-2.2,39,30.28,10.0,NW,5.8,-,N/A,,Clear,310,2013-01-23 00:54:00
8:15 PM,17.6,-0.4,45,30.29,10.0,NW,6.9,-,N/A,,Clear,310,2013-01-23 01:15:00
8:36 PM,17.6,-0.4,45,30.29,10.0,WNW,6.9,-,N/A,,Clear,300,2013-01-23 01:36:00
8:57 PM,17.6,-0.4,45,30.30,10.0,NNW,4.6,-,N/A,,Clear,330,2013-01-23 01:57:00
9:18 PM,17.6,-0.4,45,30.29,10.0,NW,5.8,-,N/A,,Clear,320,2013-01-23 02:18:00
9:39 PM,17.6,-0.4,45,30.30,10.0,NW,9.2,-,N/A,,Clear,320,2013-01-23 02:39:00
10:00 PM,17.6,-0.4,45,30.30,10.0,NNW,9.2,19.6,N/A,,Clear,330,2013-01-23 03:00:00
10:24 PM,17.6,-0.4,45,30.31,10.0,NNW,12.7,19.6,N/A,,Clear,330,2013-01-23 03:24:00
11:06 PM,17.6,-0.4,45,30.32,10.0,NW,3.5,-,N/A,,Clear,310,2013-01-23 04:06:00
11:27 PM,15.8,-0.4,49,30.32,10.0,Calm,Calm,-,N/A,,Clear,0,2013-01-23 04:27:00
11:48 PM,14.0,-0.4,53,30.32,10.0,NW,3.5,-,N/A,,Clear,320,2013-01-23 04:48:00